Location: Ostrava
(49.8330°N, 18.2830°E)
Time: 22:50:16
(UTC+02:00)

Iridium 39 - Visible Passes

Search period start: 27 July 2017 00:00
Search period end: 06 August 2017 00:00
Orbit: 724 x 752 km, 86.4° (Epoch: 26 July)

Date Brightness Start Highest point End Pass type
(mag) Time Alt. Az. Time Alt. Az. Time Alt. Az.
27 Jul 7.5 04:02:55 10° SSE 04:07:34 37° E 04:12:12 10° NNE visible
28 Jul 8.5 03:19:24 10° ESE 03:22:47 18° ENE 03:26:09 10° NE visible
29 Jul 6.7 04:12:03 10° SSE 04:16:59 56° E 04:21:56 10° NNE visible
30 Jul 8.0 03:27:55 10° SE 03:32:04 26° E 03:36:14 10° NNE visible
31 Jul 8.7 02:45:17 10° E 02:47:24 13° ENE 02:49:32 10° NE visible
31 Jul 6.0 04:21:24 10° S 04:26:28 84° E 04:31:32 10° N visible
01 Aug 7.3 03:36:47 10° SSE 03:41:26 39° E 03:46:05 10° NNE visible
02 Aug 8.4 02:53:11 10° ESE 02:56:38 19° ENE 03:00:05 10° NE visible
02 Aug 6.0 04:31:00 10° SSW 04:36:01 65° W 04:41:02 10° N visible
03 Aug 6.5 03:45:55 10° SSE 03:50:52 58° E 03:55:48 10° N visible
04 Aug 7.8 03:01:44 10° SE 03:05:56 27° E 03:10:08 10° NNE visible
04 Aug 6.4 04:40:50 10° SSW 04:45:38 43° W 04:50:26 10° N visible
05 Aug 8.6 02:18:59 10° E 02:21:15 13° ENE 02:23:31 10° NE visible
05 Aug 6.0 03:55:18 10° S 04:00:21 87° E 04:05:24 10° N visible
